EDT,Max TemperatureF,Mean TemperatureF,Min TemperatureF,Max Dew PointF,MeanDew PointF,Min DewpointF,Max Humidity, Mean Humidity, Min Humidity, Max Sea Level PressureIn, Mean Sea Level PressureIn, Min Sea Level PressureIn, Max VisibilityMiles, Mean VisibilityMiles, Min VisibilityMiles, Max Wind SpeedMPH, Mean Wind SpeedMPH, Max Gust SpeedMPH,PrecipitationIn, CloudCover, Events, WindDirDegrees
2013-7-1,68,65,62,65,64,60,100,94,87,30.08,30.00,29.93,10,7,2,12,4,,0.21,8,Rain,316
2013-7-2,86,73,60,72,65,59,100,89,61,30.13,30.07,30.02,10,8,2,13,4,,0.03,7,Rain-Thunderstorm,322
2013-7-3,89,77,66,70,68,66,97,79,48,30.19,30.15,30.10,10,8,2,10,3,,0.00,3,,167
2013-7-4,87,79,71,72,70,68,93,78,55,30.21,30.18,30.14,10,9,2,9,4,17,0.11,4,Rain,154
2013-7-5,87,78,69,73,70,66,96,80,53,30.19,30.14,30.08,10,9,1,12,4,,0.32,5,Rain,178
2013-7-6,89,78,69,72,69,64,96,77,53,30.19,30.14,30.06,10,10,10,5,2,,0.01,2,Rain,157
2013-7-7,86,78,72,72,68,64,97,74,53,30.10,30.05,29.97,10,10,6,7,3,,0.14,4,Rain-Thunderstorm,274
2013-7-8,84,76,69,71,67,64,94,80,56,30.10,30.06,30.03,10,8,0,21,4,25,0.94,6,Fog-Rain-Thunderstorm,110
2013-7-9,84,76,69,70,68,66,91,81,62,30.09,30.04,29.96,10,9,2,8,5,,0.05,4,Rain,143
2013-7-10,89,78,69,72,69,64,93,79,53,29.95,29.86,29.78,10,8,2,14,5,22,0.25,4,Rain-Thunderstorm,150
2013-7-11,79,70,62,65,60,56,94,72,46,30.06,29.98,29.87,10,10,4,12,5,18,0.02,4,Rain,348
2013-7-12,77,67,59,65,60,57,93,78,52,30.22,30.16,30.07,10,10,10,9,2,,0.00,0,,41
2013-7-13,79,70,60,69,65,58,96,79,65,30.30,30.24,30.21,10,10,10,6,2,,0.00,6,Rain,242
2013-7-14,91,78,66,73,69,65,93,73,45,30.35,30.31,30.26,10,10,10,8,6,,0.00,1,,131
2013-7-15,90,80,71,73,71,68,93,76,55,30.35,30.31,30.27,10,10,10,9,4,,0.00,3,,126
2013-7-16,91,79,68,72,68,66,93,71,48,30.34,30.29,30.25,10,10,8,10,3,,0.00,0,,23
2013-7-17,93,81,69,74,70,65,87,69,47,30.29,30.22,30.14,10,10,10,10,5,,0.00,1,,116
2013-7-18,93,83,73,75,73,69,91,74,47,30.15,30.08,30.01,10,10,4,9,4,,0.03,1,Rain-Thunderstorm,165
2013-7-19,93,80,69,73,69,64,100,72,47,30.02,29.90,29.80,10,8,2,18,8,26,0.49,3,Rain-Thunderstorm,330
2013-7-20,80,74,66,68,67,64,93,80,62,29.94,29.84,29.77,10,10,4,13,6,22,0.13,4,Rain-Thunderstorm,116
2013-7-21,81,72,63,65,63,60,100,78,54,30.05,29.99,29.94,10,9,2,9,1,,0.00,3,,339
2013-7-22,82,72,62,69,65,60,96,82,56,30.04,29.93,29.83,10,9,2,8,2,20,0.38,4,Rain-Thunderstorm,138
2013-7-23,84,75,66,68,66,61,100,81,46,29.81,29.72,29.66,10,9,6,16,2,22,0.20,5,Rain,337
2013-7-24,69,61,53,60,53,49,89,69,52,30.10,29.92,29.75,10,10,10,15,10,21,0.00,5,,323
2013-7-25,75,60,48,53,50,46,97,69,44,30.18,30.14,30.11,10,10,10,10,4,,0.00,1,,89
2013-7-26,79,64,50,58,53,48,100,74,43,30.18,30.12,30.05,10,10,10,9,4,,0.00,1,,146
2013-7-27,80,68,57,67,61,54,97,81,56,30.06,29.96,29.88,10,9,2,10,6,,0.19,4,Rain,142
2013-7-28,77,68,60,65,62,57,97,81,55,30.04,29.93,29.86,10,9,4,13,3,,0.11,6,Rain-Thunderstorm,359
2013-7-29,73,62,55,60,55,52,93,77,53,30.20,30.10,30.04,10,10,10,8,4,,0.04,5,Rain,148
2013-7-30,77,66,55,60,56,54,94,75,46,30.26,30.21,30.18,10,10,10,9,4,,0.00,4,,201
2013-7-31,82,68,54,62,57,53,97,70,37,30.21,30.12,29.99,10,10,10,8,6,,0.00,1,,144